[Iaude] MPEC S28: 2016 RZ40

mpec at si.edu mpec at si.edu
Thu Sep 29 16:10:40 EDT 2016


M.P.E.C. 2016-S28                                Issued 2016 Sept. 24, 18:05 UT
 
     The Minor Planet Electronic Circulars contain information on unusual
         minor planets and routine data on comets.  They are published
    on behalf of Division F of the International Astronomical Union by the
          Minor Planet Center, Smithsonian Astrophysical Observatory,
                          Cambridge, MA 02138, U.S.A.

             Prepared using the Tamkin Foundation Computer Network

                              MPC at CFA.HARVARD.EDU
            URL http://www.minorplanetcenter.net/    ISSN 1523-6714


                                   2016 RZ40
 
Observations:
     K16R40Z  C2016 09 10.27782 23 54 21.68 -06 20 46.7          20.6 VoES028691
     K16R40Z  C2016 09 10.28689 23 54 22.30 -06 20 41.5          20.8 VoES028691
     K16R40Z  C2016 09 10.29593 23 54 22.99 -06 20 36.3          20.7 VoES028691
     K16R40Z* C2016 09 10.32412 23 54 25.15 -06 20 20.8          20.5 VqES028G96
     K16R40Z  C2016 09 10.32793 23 54 25.45 -06 20 18.3          20.5 VqES028G96
     K16R40Z  C2016 09 10.33175 23 54 25.71 -06 20 15.9          20.5 VqES028G96
     K16R40Z  C2016 09 10.33558 23 54 26.03 -06 20 13.7          20.3 VqES028G96
     K16R40Z  C2016 09 10.44541 23 54 34.45 -06 19 09.8          20.4 VqES028G96
     K16R40Z  C2016 09 10.45219 23 54 35.00 -06 19 06.1          20.5 VqES028G96
     K16R40Z  C2016 09 10.45904 23 54 35.57 -06 19 02.1          20.7 VqES028G96
     K16R40Z  C2016 09 10.46678 23 54 36.17 -06 18 58.5          21.0 VqES028G96
     K16R40Z KC2016 09 11.23196 23 55 47.02 -06 11 32.7          20.2 RqES028H36
     K16R40Z KC2016 09 11.26291 23 55 49.44 -06 11 14.5          20.6 RqES028H36
     K16R40Z KC2016 09 11.30929 23 55 53.12 -06 10 46.4          20.6 RqES028H36
     K16R40Z  C2016 09 11.31022 23 55 53.67 -06 10 42.7          20.6 VqES028G96
     K16R40Z  C2016 09 11.31677 23 55 54.19 -06 10 39.1          20.2 VqES028G96
     K16R40Z  C2016 09 11.32294 23 55 54.67 -06 10 35.1          20.2 VqES028G96
     K16R40Z  C2016 09 11.32939 23 55 55.21 -06 10 31.7          20.2 VqES028G96
     K16R40Z KC2016 09 11.37344 23 55 58.67 -06 10 04.5          19.9 RoES028291
     K16R40Z KC2016 09 11.37719 23 55 58.98 -06 10 02.1          20.0 RoES028291
     K16R40Z KC2016 09 11.38094 23 55 59.27 -06 09 59.9          20.2 RoES028291
     K16R40Z KC2016 09 12.22630223 57 18.77 -06 01 20.0          20.2 VuES028H21
     K16R40Z KC2016 09 12.23641223 57 19.60 -06 01 13.5          20.1 VuES028H21
     K16R40Z KC2016 09 12.24545023 57 20.35 -06 01 07.7          20.2 VuES028H21
     K16R40Z  C2016 09 12.24889 23 57 21.40 -06 01 01.6          20.7 VoES028691
     K16R40Z  C2016 09 12.25150 23 57 21.60 -06 01 00.3          19.9 VqES028G96
     K16R40Z  C2016 09 12.25259 23 57 21.73 -06 00 59.5          21.2 VoES028691
     K16R40Z  C2016 09 12.25445 23 57 21.87 -06 00 58.4          20.0 VqES028G96
     K16R40Z  C2016 09 12.25630 23 57 22.03 -06 00 57.5          20.9 VoES028691
     K16R40Z  C2016 09 12.26195 23 57 22.55 -06 00 53.3          20.1 VqES028G96
     K16R40Z  C2016 09 12.26634 23 57 22.87 -06 00 50.9          20.5 VqES028G96
     K16R40Z  C2016 09 12.26798 23 57 23.09 -06 00 50.1          20.1 VqES028G96
     K16R40Z  C2016 09 12.27441 23 57 23.54 -06 00 46.1          20.5 VqES028G96
     K16R40Z  C2016 09 12.28128 23 57 24.08 -06 00 41.3          20.3 VqES028G96
     K16R40Z  C2016 09 12.29663 23 57 25.36 -06 00 31.7          20.3 VqES028G96
     K16R40Z KC2016 09 12.32257 23 57 27.00 -06 00 19.1          19.6 RqES028H36
     K16R40Z KC2016 09 12.34087 23 57 28.54 -06 00 07.0          20.0 RqES028H36
     K16R40Z KC2016 09 12.35002 23 57 29.27 -06 00 01.2          20.3 RqES028H36
     K16R40Z KC2016 09 19.23513500 09 57.32 -04 29 57.7          19.1 VuES028H21
     K16R40Z KC2016 09 19.24375200 09 58.29 -04 29 49.8          19.6 VuES028H21
     K16R40Z KC2016 09 19.25116600 09 59.11 -04 29 42.4          19.4 VuES028H21
     K16R40Z  C2016 09 22.29231 00 16 44.56 -03 36 40.1          19.6 VqES028G96
     K16R40Z  C2016 09 22.29656 00 16 45.08 -03 36 35.0          19.7 VqES028G96
     K16R40Z  C2016 09 22.30045 00 16 45.58 -03 36 31.0          19.6 VqES028G96
     K16R40Z  C2016 09 22.30465 00 16 46.10 -03 36 25.9          19.5 VqES028G96
     K16R40Z  C2016 09 22.35884 00 16 52.96 -03 35 23.4          19.4 RoES028926
     K16R40Z  C2016 09 22.37030 00 16 54.41 -03 35 10.2          19.3 RoES028926
     K16R40Z  C2016 09 22.38214 00 16 55.91 -03 34 56.6          19.3 RoES028926
     K16R40Z KC2016 09 23.05470 00 18 33.99 -03 22 02.4          19.4 VqES028Z99
     K16R40Z KC2016 09 23.05801 00 18 34.46 -03 21 58.4          19.2 VqES028Z99
     K16R40Z KC2016 09 23.06130 00 18 34.93 -03 21 54.3          19.0 VqES028Z99
 
Observer details:
291 LPL/Spacewatch II.  Observer R. S. McMillan.  1.8-m f/2.7 reflector + CCD.
691 Steward Observatory, Kitt Peak.  Observers J. V. Scotti, R. S. McMillan.
    0.9-m f/3 reflector + CCD.
926 Tenagra II Observatory.  Observers M. Schwartz, P. R. Holvorcem.  Measurer
    M. Schwartz.  0.81-m f/7 Ritchey-Chretien + CCD.
G96 Mt. Lemmon Survey.  Observers A. R. Gibbs, R. A. Kowalski.  Measurers
    E. J. Christensen, D. C. Fuls, A. R. Gibbs, A. D. Grauer, J. A. Johnson,
    R. A. Kowalski, S. M. Larson, G. J. Leonard, R. G. Matheny, R. L. Seaman,
    F. C. Shelly.  1.5-m reflector + 10K CCD.
H21 Astronomical Research Observatory, Westfield.  Observer R. Holmes.
    Measurers S. Foglia, L. Buzzi, T. Linder, R. Holmes.  0.61-m f/4.5
    astrograph + CCD.
H36 Sandlot Observatory, Scranton.  Observer G. Hug.  0.56-m reflector + CCD.
Z99 Clixby Observatory, Cleethorpes.  Observer A. Mickleburgh.  0.36-m f/8
    Schmidt-Cassegrain + CCD.
 
Orbital elements:
2016 RZ40                                                Earth MOID = 0.0962 AU
Epoch 2016 July 31.0 TT = JDT 2457600.5                 MPC
M 341.06023              (2000.0)            P               Q
n   0.20777876     Peri.   12.83003     +0.77567413     -0.63098486
a   2.8231586      Node    26.30805     +0.57628869     +0.69924995
e   0.6140273      Incl.    1.77164     +0.25733439     +0.33601729
P   4.74           H   22.4           G   0.15           U   7
Residuals in seconds of arc
160910 691  0.4+  0.3-    160911 G96  0.4+  0.3-    160912 G96  0.1+  0.4+
160910 691  0.6-  0.2-    160911 291  0.1-  0.0     160912 H36  0.5+  0.6-
160910 691  0.6-  0.1-    160911 291  0.1+  0.1+    160912 H36  0.7+  0.2-
160910 G96  0.1+  0.3-    160911 291  0.1-  0.0     160912 H36  0.3+  0.3-
160910 G96  0.3+  0.0     160912 H21  0.1+  0.0     160919 H21  0.1-  0.4-
160910 G96  0.1-  0.2+    160912 H21  0.0   0.2+    160919 H21  0.2+  0.7-
160910 G96  0.3+  0.3+    160912 H21  0.0   0.2+    160919 H21  0.2+  0.4-
160910 G96  0.2-  0.6+    160912 691  0.8-  0.2+    160922 G96  0.1+  0.0
160910 G96  0.1-  0.3+    160912 G96  0.6-  0.2+    160922 G96  0.1-  0.3+
160910 G96  0.3+  0.3+    160912 691  0.5-  0.0     160922 G96  0.0   0.2-
160910 G96  0.0   0.7-    160912 G96  0.2-  0.2+    160922 G96  0.1-  0.1+
160911 H36  1.2+  0.0     160912 691  0.6-  0.3-    160922 926  0.2+  0.1-
160911 H36  0.5+  0.2-    160912 G96  0.7+  0.6+    160922 926  0.2+  0.0
160911 H36  0.4+  0.0     160912 G96  0.0   0.3+    160922 926  0.1+  0.1-
160911 G96  0.1-  0.2+    160912 G96  1.3+  0.0     160923 Z99  0.5-  0.1+
160911 G96  0.0   0.1-    160912 G96  0.1+  0.0     160923 Z99  0.2-  0.2+
160911 G96  0.1-  0.2+    160912 G96  0.2-  0.5+    160923 Z99  0.2+  0.3+

Ephemeris:
2016 RZ40                a,e,i = 2.82, 0.61, 2                   q = 1.0897
Date    TT    R. A. (2000) Decl.     Delta      r     Elong.  Phase     V
2016 08 25    23 34 47.4 -08 06 48   0.3712  1.3662   160.4    14.4    21.7
...
2016 09 09    23 52 30.8 -06 32 07   0.2629  1.2666   169.5     8.4    20.6
...
2016 09 17    00 05 31.3 -05 02 47   0.2161  1.2197   172.8     5.9    20.0
...
2016 09 23    00 18 26.4 -03 22 29   0.1856  1.1882   174.4     4.8    19.5
2016 09 24    00 20 56.7 -03 02 04   0.1809  1.1833   174.6     4.6    19.5
2016 09 25    00 23 34.1 -02 40 26   0.1763  1.1785   174.7     4.5    19.4
...
2016 10 01    00 42 11.2 -00 00 55   0.1511  1.1519   175.5     3.9    19.0
...
2016 10 09    01 16 58.8 +05 09 10   0.1246  1.1231   175.3     4.2    18.5
...
2016 10 24    03 00 13.2 +19 09 37   0.1022  1.0925   162.6    15.8    18.5

A. U. Tomatic                (C) Copyright 2016 MPC           M.P.E.C. 2016-S28




More information about the Iaude mailing list